Denver, CO

11:01 AM MST on December 14, 2017 (GMT -0700)
Front Range

Weather History for KFTG - March, 2013

Change the Weather History Date:

Sunday, March 31, 2013

  Actual Average (KBKF) Record (KBKF)
Temperature  
Mean Temperature 50 °F -  
Max Temperature 68 °F 55 °F 80 °F (2012)
Min Temperature 33 °F 30 °F 19 °F (2009)
Degree Days  
Heating Degree Days 14    
Moisture  
Dew Point 30 °F    
Average Humidity 67    
Maximum Humidity 93    
Minimum Humidity 14    
Precipitation  
Precipitation 0.00 in - - ()
Sea Level Pressure  
Sea Level Pressure 30.10 in    
Wind  
Wind Speed 7 mph (South)    
Max Wind Speed 12 mph    
Max Gust Speed -    
Visibility 10 miles    
Events      
Averages and records for this station are not official NWS values.
T = Trace of Precipitation, MM = Missing Value Source: NWS Daily Summary

Daily Weather History Graph

Daily Weather History Graph

Search for Another Location

Airport or City:

Trip Planner

Search our weather history database for the weather conditions in past years. The results will help you decide how hot, cold, wet, or windy it might be!

Date:

Astronomy

Mar. 31, 2013 Rise Set
Actual Time 6:43 AM MDT 7:21 PM MDT
Civil Twilight 6:16 AM MDT 7:48 PM MDT
Nautical Twilight 5:44 AM MDT 8:21 PM MDT
Astronomical Twilight 5:11 AM MDT 8:54 PM MDT
Moon No Moon Rise 9:34 AM MDT (3/31)
Length of Visible Light 13h 32m
Length of Day
12h 38m
Waning Gibbous, 77% of the Moon is Illuminated
Mar 31
Waning Gibbous
Apr 2
Last Quarter
Apr 10
New
Apr 18
First Quarter
Apr 25
Full

Hourly Weather History & Observations

Time (MDT) Temp. Windchill Dew Point Humidity Pressure Visibility Wind Dir Wind Speed Gust Speed Precip Events Conditions
12:18 AM 39.2 °F 35.0 °F 35.6 °F 87% 30.22 in 10.0 mi SW 5.8 mph - N/A   Clear
12:38 AM 39.2 °F 35.0 °F 35.6 °F 87% 30.22 in 10.0 mi SW 5.8 mph - N/A   Clear
12:57 AM 39.2 °F 35.0 °F 35.6 °F 87% 30.22 in 10.0 mi WSW 5.8 mph - N/A   Clear
1:18 AM 37.4 °F 32.8 °F 33.8 °F 87% 30.22 in 10.0 mi WSW 5.8 mph - N/A   Clear
1:38 AM 37.4 °F 32.8 °F 35.6 °F 93% 30.20 in 10.0 mi WSW 5.8 mph - N/A   Clear
1:58 AM 37.4 °F 32.8 °F 35.6 °F 93% 30.20 in 10.0 mi SW 5.8 mph - N/A   Clear
2:18 AM 37.4 °F 32.8 °F 35.6 °F 93% 30.19 in 10.0 mi SW 5.8 mph - N/A   Clear
2:38 AM 39.2 °F 35.0 °F 35.6 °F 87% 30.18 in 10.0 mi SW 5.8 mph - N/A   Clear
2:58 AM 39.2 °F 35.0 °F 35.6 °F 87% 30.17 in 10.0 mi SW 5.8 mph - N/A   Clear
3:18 AM 37.4 °F 32.1 °F 33.8 °F 87% 30.17 in 10.0 mi SSW 6.9 mph - N/A   Clear
3:38 AM 33.8 °F 27.7 °F 32.0 °F 93% 30.16 in 10.0 mi South 6.9 mph - N/A   Clear
3:57 AM 33.8 °F 28.6 °F 32.0 °F 93% 30.16 in 10.0 mi South 5.8 mph - N/A   Clear
4:18 AM 33.8 °F 27.7 °F 32.0 °F 93% 30.14 in 10.0 mi South 6.9 mph - N/A   Clear
4:38 AM 33.8 °F 27.7 °F 32.0 °F 93% 30.14 in 10.0 mi South 6.9 mph - N/A   Clear
4:58 AM 33.8 °F 27.0 °F 32.0 °F 93% 30.14 in 10.0 mi South 8.1 mph - N/A   Clear
5:18 AM 35.6 °F 28.0 °F 32.0 °F 87% 30.13 in 10.0 mi South 10.4 mph - N/A   Clear
5:37 AM 33.8 °F 27.7 °F 32.0 °F 93% 30.12 in 10.0 mi South 6.9 mph - N/A   Clear
5:57 AM 33.8 °F 27.7 °F 32.0 °F 93% 30.12 in 10.0 mi South 6.9 mph - N/A   Clear
6:18 AM 33.8 °F 26.4 °F 32.0 °F 93% 30.10 in 10.0 mi South 9.2 mph - N/A   Clear
6:38 AM 33.8 °F 27.0 °F 32.0 °F 93% 30.10 in 10.0 mi South 8.1 mph - N/A   Clear
6:47 AM 35.6 °F 29.2 °F 32.0 °F 87% 30.10 in 50.0 mi South 8.1 mph - N/A   Clear
6:58 AM 33.8 °F 25.8 °F 32.0 °F 93% 30.10 in 10.0 mi South 10.4 mph - N/A   Clear
7:03 AM 35.6 °F 28.6 °F 32.0 °F 87% 30.10 in 10.0 mi South 9.2 mph - N/A   Clear
7:47 AM 39.2 °F 32.0 °F 33.8 °F 81% 30.09 in 50.0 mi South 11.5 mph - N/A   Clear
9:58 AM 55.4 °F - 30.2 °F 38% 30.04 in 50.0 mi SSW 11.5 mph - N/A   Clear
10:55 AM 59.0 °F - 21.2 °F 23% 30.02 in 50.0 mi SW 6.9 mph - N/A   Clear
11:47 AM 62.6 °F - 19.4 °F 19% 30.02 in 50.0 mi WSW 6.9 mph - N/A   Clear
12:55 PM 66.2 °F - 15.8 °F 14% 30.01 in 50.0 mi Calm Calm - N/A   Clear
1:52 PM 68.0 °F - 19.4 °F 16% 29.99 in 50.0 mi North 6.9 mph - N/A   Clear
2:51 PM 68.0 °F - 21.2 °F 17% 29.98 in 50.0 mi NNE 10.4 mph - N/A   Partly Cloudy
3:54 PM 68.0 °F - 19.4 °F 16% 29.97 in 50.0 mi NE 8.1 mph - N/A   Partly Cloudy
4:55 PM 66.2 °F - 24.8 °F 21% 29.96 in 50.0 mi ENE 11.5 mph - N/A   Partly Cloudy
5:48 PM 66.2 °F - 21.2 °F 18% 29.96 in 50.0 mi ENE 9.2 mph - N/A   Partly Cloudy
6:48 PM 62.6 °F - 26.6 °F 26% 29.97 in 50.0 mi East 4.6 mph - N/A   Partly Cloudy
8:58 PM 48.2 °F - 32.0 °F 54% 30.03 in 10.0 mi East 10.4 mph - N/A   Scattered Clouds
9:18 PM 48.2 °F - 32.0 °F 54% 30.03 in 10.0 mi East 10.4 mph - N/A   Clear
9:37 PM 46.4 °F 41.5 °F 30.2 °F 53% 30.04 in 10.0 mi East 10.4 mph - N/A   Scattered Clouds
9:58 PM 44.6 °F 38.8 °F 32.0 °F 61% 30.05 in 10.0 mi East 11.5 mph - N/A   Scattered Clouds
10:18 PM 44.6 °F 40.2 °F 30.2 °F 57% 30.06 in 10.0 mi East 8.1 mph - N/A   Clear
10:38 PM 42.8 °F 38.6 °F 30.2 °F 61% 30.07 in 10.0 mi ESE 6.9 mph - N/A   Clear
11:18 PM 42.8 °F 37.5 °F 30.2 °F 61% 30.10 in 10.0 mi NNE 9.2 mph - N/A   Clear
11:38 PM 42.8 °F 38.0 °F 30.2 °F 61% 30.12 in 10.0 mi NNE 8.1 mph - N/A   Clear